Location: Heisler
(52.6701°N, 112.2239°W)
Time: 17:34:42
(UTC+00:00)

N. Korean satellite - Pass Details

Date: 05 December 2021
Orbit: 446 x 492 km, 97.3° (Epoch: 16 January)

Event Time Altitude Azimuth Distance (km) Brightness Sun altitude
Rises 13:37:30 0° 6° (N) 2,475 10.0 -15.1°
Reaches altitude 10° 13:39:41 10° 356° (N) 1,593 9.0 -14.7°
Maximum altitude 13:42:44 31° 292° (WNW) 810 7.1 -14.3°
Drops below altitude 10° 13:45:45 10° 229° (SW) 1,575 8.9 -13.9°
Sets 13:47:56 0° 218° (SW) 2,460 10.0 -13.6°
